Location: Buckeye Ditch
(40.9104°N, 122.9517°W)
Time: 13:20:18
(UTC+00:00)

Explorer 7 - Pass Details

Date: 27 May 2025
Orbit: 445 x 571 km, 50.3° (Epoch: 22 June)

Event Time Altitude Azimuth Distance (km) Brightness Sun altitude
Rises 09:34:14 0° 279° (W) 2,469 - -24.6°
Reaches altitude 10° 09:36:41 10° 295° (WNW) 1,614 - -24.5°
Exits shadow 09:37:49 16° 309° (NW) 1,296 8.9 -24.4°
Maximum altitude 09:39:36 22° 348° (NNW) 1,072 8.8 -24.3°
Drops below altitude 10° 09:42:37 10° 42° (NE) 1,669 10.2 -24.0°
Sets 09:45:12 0° 57° (ENE) 2,579 11.1 -23.8°
